Erie, CO

11:07 AM MDT on May 26, 2017 (GMT -0600)
Erie Municipal Airport

Weather History for KEIK - February, 2013

Change the Weather History Date:

Tuesday, February 12, 2013

  Actual Average (KBJC) Record (KBJC)
Temperature  
Mean Temperature 24 °F -  
Max Temperature 43 °F 44 °F 70 °F (1990)
Min Temperature 6 °F 24 °F -2 °F (1986)
Degree Days  
Heating Degree Days 40    
Moisture  
Dew Point 2 °F    
Average Humidity 47    
Maximum Humidity 90    
Minimum Humidity 10    
Precipitation  
Precipitation 0.00 in - - ()
Sea Level Pressure  
Sea Level Pressure 30.00 in    
Wind  
Wind Speed 2 mph (SSE)    
Max Wind Speed 9 mph    
Max Gust Speed -    
Visibility 10 miles    
Events      
Averages and records for this station are not official NWS values.
T = Trace of Precipitation, MM = Missing Value Source: NWS Daily Summary

Daily Weather History Graph

Daily Weather History Graph

Search for Another Location

Airport or City:

Trip Planner

Search our weather history database for the weather conditions in past years. The results will help you decide how hot, cold, wet, or windy it might be!

Date:

Astronomy

Feb. 12, 2013 Rise Set
Actual Time 6:56 AM MST 5:32 PM MST
Civil Twilight 6:28 AM MST 6:00 PM MST
Nautical Twilight 5:56 AM MST 6:32 PM MST
Astronomical Twilight 5:25 AM MST 7:04 PM MST
Moon 7:55 AM MST (2/12) 8:36 PM MST (2/12)
Length of Visible Light 11h 32m
Length of Day
10h 36m
Waxing Crescent, 8% of the Moon is Illuminated
Feb 12
Waxing Crescent
Feb 17
First Quarter
Feb 25
Full
Mar 4
Last Quarter
Mar 11
New

Hourly Weather History & Observations

Time (MST) Temp. Windchill Dew Point Humidity Pressure Visibility Wind Dir Wind Speed Gust Speed Precip Events Conditions
12:16 AM 11.7 °F - 8.2 °F 86% 30.01 in 10.0 mi Calm Calm - N/A   Clear
12:36 AM 11.8 °F - 8.4 °F 86% 30.00 in 10.0 mi Calm Calm - N/A   Clear
12:56 AM 12.6 °F 6.5 °F 9.9 °F 89% 30.00 in 10.0 mi SSW 3.5 mph - N/A   Clear
1:16 AM 12.0 °F - 8.4 °F 85% 30.00 in 10.0 mi Calm Calm - N/A   Clear
1:36 AM 10.4 °F - 7.5 °F 88% 29.99 in 10.0 mi Calm Calm - N/A   Clear
1:56 AM 11.8 °F 5.7 °F 9.0 °F 88% 30.00 in 10.0 mi South 3.5 mph - N/A   Clear
2:16 AM 12.7 °F - 8.8 °F 84% 29.99 in 10.0 mi Calm Calm - N/A   Clear
2:36 AM 12.0 °F 4.1 °F 8.8 °F 87% 29.99 in 10.0 mi SSW 4.6 mph - N/A   Clear
2:56 AM 11.5 °F 5.3 °F 8.1 °F 86% 29.99 in 10.0 mi SSW 3.5 mph - N/A   Clear
3:16 AM 11.5 °F - 7.9 °F 85% 29.99 in 10.0 mi Calm Calm - N/A   Clear
3:36 AM 8.6 °F - 5.7 °F 88% 29.99 in 10.0 mi Calm Calm - N/A   Clear
3:56 AM 8.4 °F - 5.0 °F 86% 30.00 in 10.0 mi Calm Calm - N/A   Clear
4:16 AM 7.7 °F - 4.3 °F 86% 30.01 in 10.0 mi Calm Calm - N/A   Clear
4:36 AM 8.6 °F - 5.5 °F 87% 30.01 in 10.0 mi Calm Calm - N/A   Clear
4:56 AM 7.3 °F - 4.5 °F 88% 30.02 in 10.0 mi Calm Calm - N/A   Clear
5:16 AM 8.1 °F 1.4 °F 5.7 °F 90% 30.02 in 10.0 mi SSW 3.5 mph - N/A   Clear
5:36 AM 9.0 °F - 5.9 °F 87% 30.02 in 10.0 mi Calm Calm - N/A   Clear
5:56 AM 9.1 °F - 5.7 °F 86% 30.02 in 10.0 mi Calm Calm - N/A   Clear
6:16 AM 8.1 °F - 4.5 °F 85% 30.01 in 10.0 mi Calm Calm - N/A   Clear
6:36 AM 7.7 °F - 4.5 °F 87% 30.01 in 10.0 mi Calm Calm - N/A   Clear
6:56 AM 7.3 °F - 4.3 °F 87% 30.00 in 10.0 mi Calm Calm - N/A   Clear
7:16 AM 6.8 °F - 3.9 °F 88% 30.00 in 10.0 mi Calm Calm - N/A   Clear
7:36 AM 9.9 °F 3.4 °F 7.2 °F 89% 30.01 in 10.0 mi SSW 3.5 mph - N/A   Clear
7:56 AM 14.2 °F 6.7 °F 10.4 °F 85% 30.01 in 10.0 mi SSW 4.6 mph - N/A   Clear
8:16 AM 17.8 °F - 11.8 °F 78% 30.01 in 10.0 mi Calm Calm - N/A   Clear
8:36 AM 21.9 °F - 15.8 °F 77% 30.01 in 10.0 mi Calm Calm - N/A   Clear
8:56 AM 25.9 °F - 15.6 °F 65% 30.01 in 10.0 mi Calm Calm - N/A   Clear
9:16 AM 30.0 °F - 5.4 °F 35% 30.00 in 10.0 mi Calm Calm - N/A   Clear
9:36 AM 32.0 °F 28.7 °F 6.3 °F 34% 30.01 in 10.0 mi NNE 3.5 mph - N/A   Clear
9:56 AM 32.0 °F - 8.4 °F 37% 30.01 in 10.0 mi Calm Calm - N/A   Clear
10:16 AM 34.2 °F - 1.8 °F 25% 30.01 in 10.0 mi Calm Calm - N/A   Clear
10:36 AM 37.2 °F 34.7 °F -3.8 °F 17% 30.01 in 10.0 mi ESE 3.5 mph - N/A   Clear
10:56 AM 37.4 °F - -8.0 °F 14% 30.01 in 10.0 mi Calm Calm - N/A   Clear
11:16 AM 39.2 °F - -8.9 °F 13% 30.01 in 10.0 mi Calm Calm - N/A   Clear
11:36 AM 39.9 °F - -9.6 °F 12% 30.01 in 10.0 mi Calm Calm - N/A   Clear
11:56 AM 40.8 °F 38.8 °F -8.5 °F 12% 30.00 in 10.0 mi NE 3.5 mph - N/A   Clear
12:16 PM 41.0 °F - -9.9 °F 11% 30.00 in 10.0 mi Calm Calm - N/A   Clear
12:36 PM 41.2 °F 39.2 °F -11.4 °F 10% 29.99 in 10.0 mi South 3.5 mph - N/A   Clear
12:56 PM 42.1 °F 39.2 °F -11.6 °F 10% 29.98 in 10.0 mi ESE 4.6 mph - N/A   Clear
1:16 PM 42.1 °F 37.7 °F -11.2 °F 10% 29.98 in 10.0 mi SE 6.9 mph - N/A   Clear
1:36 PM 43.3 °F 40.7 °F -10.5 °F 10% 29.97 in 10.0 mi ESE 4.6 mph - N/A   Clear
1:56 PM 43.0 °F - -9.8 °F 11% 29.97 in 10.0 mi Calm Calm - N/A   Clear
2:16 PM 43.3 °F 41.7 °F -9.9 °F 10% 29.97 in 10.0 mi NNE 3.5 mph - N/A   Clear
2:36 PM 43.7 °F 38.6 °F -7.8 °F 11% 29.97 in 10.0 mi East 9.2 mph - N/A   Clear
2:56 PM 43.3 °F 39.2 °F -8.1 °F 11% 29.97 in 10.0 mi East 6.9 mph - N/A   Clear
3:16 PM 43.3 °F 39.9 °F -7.1 °F 12% 29.97 in 10.0 mi ENE 5.8 mph - N/A   Clear
3:36 PM 43.0 °F 38.2 °F -6.7 °F 12% 29.97 in 10.0 mi East 8.1 mph - N/A   Clear
3:56 PM 42.6 °F 39.9 °F -6.0 °F 13% 29.97 in 10.0 mi East 4.6 mph - N/A   Clear
4:16 PM 42.4 °F 38.1 °F -5.8 °F 13% 29.98 in 10.0 mi ENE 6.9 mph - N/A   Clear
4:36 PM 41.4 °F 37.6 °F -5.8 °F 14% 29.98 in 10.0 mi East 5.8 mph - N/A   Clear
4:56 PM 40.5 °F 37.3 °F -5.1 °F 15% 29.98 in 10.0 mi ESE 4.6 mph - N/A   Clear
5:16 PM 37.8 °F 35.3 °F -4.2 °F 17% 29.98 in 10.0 mi ESE 3.5 mph - N/A   Clear
5:36 PM 33.4 °F 30.4 °F -3.5 °F 21% 29.98 in 10.0 mi SE 3.5 mph - N/A   Clear
5:56 PM 30.7 °F 26.0 °F -0.4 °F 26% 29.99 in 10.0 mi SW 4.6 mph - N/A   Clear
6:16 PM 31.8 °F 28.5 °F -1.5 °F 24% 29.99 in 10.0 mi SSW 3.5 mph - N/A   Clear
6:36 PM 32.7 °F 25.7 °F 1.4 °F 26% 29.99 in 10.0 mi SSW 8.1 mph - N/A   Clear
6:56 PM 33.4 °F 27.3 °F 1.8 °F 26% 29.99 in 10.0 mi SSW 6.9 mph - N/A   Clear
7:16 PM 32.9 °F 28.5 °F 2.3 °F 27% 29.99 in 10.0 mi SSW 4.6 mph - N/A   Clear
7:36 PM 31.5 °F 23.5 °F 2.8 °F 30% 29.99 in 10.0 mi South 9.2 mph - N/A   Clear
7:56 PM 30.0 °F 21.7 °F 3.2 °F 32% 29.99 in 10.0 mi SSE 9.2 mph - N/A   Clear
8:16 PM 32.0 °F 26.4 °F 3.0 °F 29% 29.99 in 10.0 mi South 5.8 mph - N/A   Clear
8:36 PM 32.4 °F 26.0 °F 2.3 °F 28% 29.99 in 10.0 mi South 6.9 mph - N/A   Clear
8:56 PM 29.3 °F 24.3 °F 2.8 °F 32% 30.00 in 10.0 mi SE 4.6 mph - N/A   Clear
9:16 PM 27.9 °F - 3.7 °F 36% 30.00 in 10.0 mi Calm Calm - N/A   Clear
9:36 PM 26.8 °F - 3.7 °F 37% 29.99 in 10.0 mi Calm Calm - N/A   Clear
9:56 PM 25.7 °F 20.1 °F 5.2 °F 42% 29.99 in 10.0 mi SSE 4.6 mph - N/A   Clear
10:15 PM 25.2 °F - 5.2 °F 43% 29.99 in 10.0 mi Calm Calm - N/A   Clear
10:36 PM 27.3 °F - 5.9 °F 40% 29.99 in 10.0 mi Calm Calm - N/A   Clear
10:56 PM 21.2 °F - 6.4 °F 53% 29.99 in 10.0 mi Calm Calm - N/A   Clear
11:16 PM 20.8 °F - 7.2 °F 56% 29.99 in 10.0 mi Calm Calm - N/A   Clear
11:36 PM 18.5 °F 13.3 °F 7.5 °F 62% 30.00 in 10.0 mi NW 3.5 mph - N/A   Clear
11:56 PM 17.8 °F - 4.8 °F 57% 30.01 in 10.0 mi Calm Calm - N/A   Mostly Cloudy